Location: Kalamazoo
(42.2920°N, 85.5870°W)
Time: 07:37:35
(UTC-04:00)

Daily predictions for brighter satellites

Satellite Brightness Start Highest point End
(mag) Time Altitude Azimuth Time Altitude Azimuth Time Altitude Azimuth
deb Chang Zheng 4 4.4 21:33:04 10° NE 21:37:00 31° E 21:40:56 10° SSE
Cosmos 1452 Rocket 4.1 21:35:04 10° SSE 21:39:50 36° ESE 21:44:38 10° NE
COSMOS 2406 3.5 21:35:12 10° NNW 21:40:59 76° WSW 21:46:40 10° SSE
Cosmos 2154 Rocket 4.4 21:37:18 10° SSE 21:43:05 42° E 21:48:52 10° NNE
Cosmos 1190 Rocket 4.0 21:38:05 10° NNW 21:43:18 80° ENE 21:48:30 10° SSE
YAOGAN 6 4.4 21:44:31 10° ESE 21:46:49 17° ENE 21:49:07 10° NNE
Cosmos 1408 3.8 21:44:52 10° SE 21:47:53 24° E 21:50:54 10° NE
Cosmos 2184 Rocket 4.1 21:43:21 10° S 21:49:30 88° W 21:55:44 10° N
Cosmos 2278 Rocket 2.8 21:44:53 10° S 21:50:00 36° ESE 21:55:08 10° NE
YAOGAN 11 4.3 21:45:38 10° SSE 21:50:09 86° WSW 21:54:45 10° NNW
ALOS 3.6 21:46:14 10° SSW 21:50:37 40° W 21:55:03 10° NNW
Cosmos 1825 3.1 21:48:53 10° SSE 21:52:13 29° E 21:55:33 10° NNE
Cosmos 1844 Rocket 2.7 21:47:18 10° SSW 21:52:57 79° ESE 21:58:37 10° NNE
SJ-11-01 4.3 21:48:15 10° SSE 21:53:00 85° ENE 21:57:46 10° NNW
Cosmos 1844 3.8 21:49:08 10° S 21:54:46 61° ESE 22:00:30 10° NNE
H-2A R/B 2.1 21:55:54 10° SSE 22:00:09 60° ENE 22:04:19 10° N
Cosmos 1184 Rocket 3.8 21:59:21 10° SSE 22:02:12 28° E 22:05:06 10° NNE
CENTAUR R/B 4.0 21:55:09 10° NW 22:02:36 46° WSW 22:10:23 10° S
SL-8 R/B 4.4 21:57:56 10° W 22:02:42 58° NNW 22:07:27 10° ENE
Cosmos 2082 Rocket 3.5 22:04:04 10° N 22:08:50 26° NE 22:13:01 12° ESE
EO 1 Delta rocket 4.2 22:04:33 10° NNE 22:10:45 67° E 22:15:44 10° S
Cosmos 676 Rocket 4.0 22:08:43 10° NNW 22:13:57 89° E 22:18:53 12° SSE
ISS -3.3 22:12:08 10° SW 22:15:20 57° SE 22:18:31 10° ENE
Cosmos 1238 Rocket 2.6 22:12:26 10° N 22:15:38 55° E 22:18:32 15° SSE
Terra 3.9 22:13:40 10° E 22:16:04 14° ENE 22:18:28 10° NNE
Cosmos 1174 3.2 22:13:13 10° NW 22:16:27 71° WSW 22:18:31 18° SSE
Cosmos 1954 Rocket 4.0 22:13:27 10° NNW 22:18:40 77° ENE 22:23:04 15° SSE
Cosmos 1862 3.3 22:16:00 10° S 22:20:03 79° E 22:24:09 10° N
SPOT 5 3.1 22:15:47 12° SSE 22:20:44 73° ENE 22:26:06 10° N
Cosmos 2297 4.3 22:19:58 10° SSE 22:25:05 35° ESE 22:30:14 10° NE
COS B Rocket 3.2 22:21:34 10° N 22:25:41 88° W 22:29:13 11° S
Okean 3 3.4 22:24:53 10° N 22:29:11 78° E 22:32:25 17° SSE
Okean 2 Rocket 3.2 22:25:23 12° S 22:29:17 55° E 22:33:37 10° NNE
OAO 3 Rocket 4.5 22:25:55 10° SSW 22:29:34 21° SSE 22:30:20 20° SSE
Cosmos 1741 Rocket 4.4 22:27:00 10° N 22:32:06 49° ENE 22:35:16 22° SE
Cosmos 1606 3.5 22:30:05 10° NNW 22:33:56 52° W 22:37:44 10° S
Nadezhda 3 Rocket 4.2 22:30:10 10° N 22:36:31 75° W 22:42:52 10° S
Meteor 1-27 Rocket 4.1 22:32:23 10° NNW 22:37:52 60° W 22:43:15 10° S
Cosmos 2218 Rocket 4.4 22:33:58 17° SSE 22:38:37 45° E 22:44:39 10° NNE
Cosmos 1023 Rocket 4.4 22:36:59 10° NNW 22:42:08 83° ENE 22:45:24 23° SSE
Cosmos 1782 Rocket 3.6 22:38:25 10° S 22:42:53 85° W 22:47:23 10° N
BREEZE-M DEB (TANK) 3.4 22:33:02 10° WNW 22:46:02 87° SSW 22:48:20 27° ESE
Meteor 2-13 Rocket 4.4 22:40:20 10° S 22:46:29 78° E 22:52:39 10° N
BREEZE-M DEB (TANK) 3.8 22:47:41 10° WNW 22:49:23 20° N 22:51:39 10° NE
COSMOS 2487 3.2 22:46:48 10° NNW 22:50:20 50° WSW 22:52:14 23° S
MetOp-B 4.2 22:46:20 17° S 22:50:30 75° WSW 22:55:53 10° NNW
GPS 2-05 Rocket1 4.0 22:47:40 10° WSW 22:50:40 27° S 22:50:40 27° S
Envisat 4.1 22:46:35 10° SSW 22:51:22 41° W 22:56:11 10° NNW
Cosmos 1727 Rocket 4.4 22:47:05 10° N 22:52:59 45° ENE 22:56:01 26° SE
APEX 3.4 22:51:36 14° SSW 22:54:56 74° ESE 23:00:00 10° NNE
DNEPR-1 R/B 3.8 22:50:56 10° NW 22:56:22 85° WSW 22:58:32 32° SSE
Cosmos 1975 Rocket 3.4 22:53:18 10° NNW 22:57:35 61° W 23:00:24 20° S
Cosmos 1420 Rocket 4.1 22:58:04 10° SSW 23:03:19 77° WNW 23:08:34 10° NNE
Cosmos 614 Rocket 3.8 23:01:13 10° NNW 23:06:20 89° ENE 23:08:37 34° SSE
ARGOS 3.1 23:05:13 27° SSE 23:08:14 85° WSW 23:13:37 10° NNW
Cosmos 1536 Rocket 3.7 23:06:02 10° N 23:10:27 57° ENE 23:11:40 42° SE
CZ-4 R/B 3.6 23:07:53 10° NNE 23:12:35 76° ESE 23:14:48 31° S
H-2A R/B 2.3 23:13:15 35° SE 23:15:21 60° ENE 23:20:35 10° N
SL-8 Rocket 4.1 23:10:09 14° SSW 23:15:42 79° W 23:21:59 10° N
Timation 2 Rocket 4.1 23:10:20 10° NNW 23:16:15 63° WSW 23:19:21 29° S
Cosmos 1140 Rocket 4.2 23:11:24 10° NNW 23:16:21 48° WSW 23:19:08 24° SSW
YAOGAN 6 4.2 23:18:37 20° SW 23:20:11 29° W 23:23:18 10° NW
Okean 1 3.9 23:18:33 10° N 23:22:24 40° ENE 23:22:36 40° E
USA 245 4.2 23:21:41 30° SW 23:22:42 38° W 23:26:28 10° NNW
Cosmos 1242 Rocket 4.1 23:19:56 10° NNW 23:23:14 32° W 23:24:43 23° SW
USA 234 3.4 23:18:46 10° ENE 23:25:02 47° SE 23:30:49 12° SSW
Meteor 1-25 Rocket 4.2 23:23:30 34° S 23:26:08 71° E 23:31:57 10° NNE
CZ-4B R/B 3.9 23:22:28 10° N 23:27:20 59° WNW 23:31:08 16° SSW
SPOT 1/Viking Rocket 4.3 23:28:03 24° SSW 23:30:52 46° W 23:35:54 10° NNW
Cosmos 1833 Rocket 2.6 23:26:12 10° NNW 23:31:51 87° ENE 23:33:42 45° SSE
Cosmos 2278 Rocket 3.8 23:28:54 10° WSW 23:34:03 35° WNW 23:39:14 10° N
Cosmos 2151 Rocket 3.9 23:33:24 33° SSW 23:35:19 65° W 23:39:51 10° N
Landsat 7 3.9 23:36:06 46° S 23:37:28 72° WSW 23:42:15 10° NNW
Meteor 1-18 Rocket 4.4 23:35:29 10° NNW 23:41:24 76° W 23:43:43 39° S
IGS 5A 3.3 23:47:10 79° S 23:47:25 87° WSW 23:51:37 10° NNW
Cosmos 1025 Rocket 4.3 23:45:01 10° NNE 23:48:39 29° ENE 23:48:39 29° ENE
CZ-3C R/B 4.5 23:48:02 10° SW 23:50:35 11° SSW 23:50:58 11° SSW
Cosmos 1812 2.8 23:47:41 10° NNW 23:51:28 73° W 23:51:28 73° W
ISS -1.0 23:49:08 10° W 23:51:56 26° NNW 23:54:45 10° NE
Cosmos 2082 Rocket 2.7 23:47:42 10° NW 23:53:12 50° WSW 23:54:52 38° SSW
Terra 1.9 23:52:21 57° SSW 23:53:12 72° WSW 23:57:58 10° NNW
SAR-Lupe-2 4.0 23:54:25 58° N 23:54:25 58° N 23:57:23 10° N
Cosmos 1300 Rocket 3.4 23:55:02 81° SSE 23:55:13 86° E 23:59:42 10° N
